www.pogodaiklimat.ru

Погода и климат >> Архив погоды >> Великобритания >> Lossiemouth


ПОГОДА в Lossiemouth

  • Прогноз погоды в Lossiemouth
  • Монитор погоды в Lossiemouth
  • Климат города

АРХИВ ПОГОДЫ в Lossiemouth

Время (UTC), дата Ветер
(напр.,м/с)
 
Видим.   Явления Облачность Т
(С)
Тd
(С)
f
(%)
Тe
(С)
Тes
(С)
Комфортность P
(гПа)
Po
(гПа)
Тmin
(С)
Tmax
(С)
R
(мм)
R24
(мм)
S
(см)
02 9.07 СЗ 4 60 км 9/9 600 м
[Sc]
+13.4 +6.5 63 +12 +12 1029.7 1028.9
01 9.07 СЗ 3 60 км 9/9 600 м
[Sc]
+13.5 +7.7 68 +13 +13 1029.7 1028.8
03 9.07 СЗ 4 60 км 9/9 800 м
[Sc]
+13.0 +6.4 64 +11 +11 1029.7 1028.8
04 9.07 СЗ 4 60 км 9/9 600 м
[Sc]
+12.9 +6.6 66 +11 +11 1029.8 1029.0
05 9.07 СЗ 4 70 км 9/9 600 м
[Sc]
+12.8 +6.5 65 +11 +11 1029.8 1028.9
06 9.07 СЗ 5 70 км 9/9 750 м
[Sc]
+13.1 +6.4 64 +11 +11 1029.8 1029.0 +12.8
08 9.07 СЗ 5 60 км 9/9 750 м
[Sc]
+13.5 +6.4 62 +12 +12 1030.0 1029.1
07 9.07 СЗ 5 60 км 9/9 750 м
[Sc]
+13.2 +6.7 65 +11 +12 1030.1 1029.2
09 9.07 СЗ 6 50 км 9/9 900 м
[Sc]
+14.1 +6.0 58 +12 +13 1030.2 1029.3
10 9.07 СЗ 6 60 км 9/9 960 м
[Sc]
+14.2 +6.6 60 +12 +13 1030.2 1029.3
11 9.07 З 5 60 км 9/9 1020 м
[Sc]
+14.8 +6.9 59 +13 +14 1029.8 1029.0
12 9.07 СЗ 5 50 км 9/9 1000 м
[Sc]
+14.9 +6.9 59 +14 +15 1029.7 1028.8
14 9.07 СЗ 4 55 км 6/6 1170 м
[Sc Ac trans]
+16.5 +6.4 51 +16 +20 1029.3 1028.5
13 9.07 СЗ 4 60 км 8/8 1140 м
[Sc]
+16.2 +6.7 53 +16 +18 1029.5 1028.7
15 9.07 СЗ 3 50 км 6/4 1230 м
[Sc Ac trans]
+17.3 +7.2 51 +17 +21 1029.0 1028.2
16 9.07 СЗ 3 50 км 8/4 1200 м
[Sc Ac trans]
+17.2 +7.5 53 +17 +20 1028.6 1027.7
17 9.07 В 4 50 км 6/3 1200 м
[Sc Ac trans]
+16.0 +9.2 64 +15 +17 1028.6 1027.7
18 9.07 В 4 50 км 9/9 1050 м
[Sc As trans]
+15.4 +8.1 62 +15 +15 1028.5 1027.7 +18.1
20 9.07 В 3 50 км 9/9 1500 м
[Sc]
+14.8 +9.1 69 +14 +14 1028.8 1028.0
19 9.07 В 3 40 км 9/6 1500 м
[Sc Ac trans]
+15.1 +8.8 66 +14 +15 1028.7 1027.9
21 9.07 ЮВ 3 40 км 9/9 1350 м
[Sc]
+14.4 +9.1 70 +14 +14 1028.9 1028.0
22 9.07 ЮВ 2 40 км 9/9 1350 м
[Sc]
+14.1 +9.6 74 +14 +14 1028.9 1028.1
23 9.07 ЮВ 2 40 км 9/9 1350 м
[Sc]
+14.0 +9.7 75 +14 +14 1028.7 1027.8
00 10.07 ЮВ 1 30 км 10/10 1350 м
[Sc]
+13.9 +9.6 75 +14 +14 1028.8 1027.9
02 10.07 Ю 1 30 км 9/9 660 м
[Sc]
+13.6 +9.8 78 +14 +14 1027.9 1027.1
01 10.07 Ю 1 30 км 10/10 1260 м
[Sc]
+13.7 +9.5 76 +14 +14 1028.3 1027.5
03 10.07 ЮЗ 2 30 км 9/9 600 м
[Sc]
+13.5 +10.5 82 +13 +13 1027.8 1026.9
04 10.07 СЗ 4 20 км в посл. час морось 10/10 240 м
[Sc]
+13.5 +12.2 92 +12 +12 1027.9 1027.0
05 10.07 З 3 7000 м дождь {морось} 10/10 150 м
[St]
+13.3 +12.7 96 +12 +12 1027.6 1026.7
06 10.07 З 3 15 км слабая морось {дождь} 10/10 180 м
[Sc]
+13.4 +12.6 95 +12 +12 1027.5 1026.7 +13.2 0.2
08 10.07 З 4 30 км 10/10 180 м
[Sc]
+13.9 +12.5 91 +12 +12 1027.4 1026.6
07 10.07 ЮЗ 3 20 км в посл. час морось 10/10 150 м
[Sc]
+13.6 +12.6 94 +12 +12 1027.6 1026.7
09 10.07 З 3 15 км слабая морось 10/10 180 м
[St]
+14.2 +13.0 92 +13 +13 1027.3 1026.5
10 10.07 З 3 3500 м слабая морось 10/10 150 м
[St]
+14.2 +13.1 93 +13 +13 1027.2 1026.4
11 10.07 З 2 2200 м слабая морось 10/10 120 м
[St]
+14.4 +13.4 94 +14 +14 1027.1 1026.3
12 10.07 СЗ 3 25 км слабая морось 10/10 180 м
[St]
+14.7 +13.5 93 +14 +14 1026.9 1026.0 0.2
14 10.07 СЗ 2 30 км осадки на расстоянии 10/10 240 м
[Cu Sc]
+15.9 +12.7 81 +16 +16 1026.5 1025.7
13 10.07 З 3 40 км н/о +15.6 +13.1 85 +15 +15 1026.5 1025.7
15 10.07 С 2 30 км осадки на расстоянии {морось} 10/10 300 м
[Cu Sc]
+16.6 +12.7 78 +17 +17 1026.2 1025.3
16 10.07 С 3 35 км 10/10 480 м
[Cu Sc]
+16.1 +12.9 81 +16 +16 1025.8 1025.0
17 10.07 СВ 3 35 км 10/10 540 м
[Sc]
+15.6 +12.9 84 +15 +15 1025.7 1024.8
18 10.07 СВ 2 40 км {морось} 10/10 1050 м
[Sc]
+15.6 +12.9 84 +15 +15 1025.6 1024.8 +17.0 0.2
20 10.07 В 3 30 км 10/10 240 м
[Sc]
+15.3 +12.9 86 +15 +15 1025.7 1024.8
19 10.07 СВ 3 30 км в посл. час морось 10/10 600 м
[Sc]
+15.6 +13.0 85 +15 +15 1025.7 1024.8
21 10.07 В 3 10 км слабый дождь {морось} 10/10 240 м
[Sc]
+15.0 +13.3 90 +14 +14 1025.6 1024.8
22 10.07 В 2 10 км слабая морось {дождь} 10/10 210 м
[Sc]
+14.7 +13.4 92 +14 +14 1025.8 1024.9
23 10.07 В 2 10 км слабая морось 10/10 210 м
[Sc]
+14.8 +13.3 91 +14 +14 1025.5 1024.7
00 11.07 В 2 8000 м дождь {морось} 10/10 300 м
[Sc]
+14.4 +13.5 94 +14 +14 1025.3 1024.4 0.0
02 11.07 штиль 0 25 км в посл. час морось 10/10 300 м
[St]
+14.1 +13.5 96 +14 +14 1024.7 1023.9
01 11.07 ЮВ 1 10 км слабая морось {дождь} 10/10 90 м
[St]
+14.1 +13.5 96 +14 +14 1024.9 1024.0
03 11.07 СВ 2 4000 м в посл. час морось 10/10 120 м
[St]
+14.4 +13.6 95 +14 +14 1024.5 1023.6
04 11.07 СВ 3 3000 м морось 10/10 90 м
[St]
+14.2 +13.8 97 +13 +13 1024.4 1023.6
05 11.07 СВ 4 3000 м слабая морось 10/10 90 м
[St]
+13.7 +13.4 98 +12 +12 1024.5 1023.6
06 11.07 СВ 4 2000 м морось {дождь} 10/10 90 м
[St]
+13.6 +13.2 97 +12 +12 1024.5 1023.7 +13.4 1
08 11.07 СВ 3 2000 м слабая морось 10/10 90 м
[Frnb]
+13.6 +13.2 97 +12 +12 1024.8 1024.0
07 11.07 СВ 4 3000 м слабая морось 10/10 120 м
[Frnb]
+13.8 +13.3 97 +12 +12 1024.7 1023.9
09 11.07 СВ 4 3000 м слабая морось 10/10 90 м
[Frnb]
+14.2 +13.6 96 +13 +13 1024.9 1024.1
10 11.07 СВ 2 4000 м слабая морось 10/10 180 м
[Frnb]
+14.1 +12.9 92 +13 +13 1024.9 1024.0
11 11.07 С 3 8000 м слабая морось 10/10 150 м
[Frnb]
+14.4 +13.3 93 +14 +14 1024.7 1023.9
12 11.07 С 4 20 км в посл. час морось 10/10 150 м
[Sc]
+14.2 +12.8 91 +13 +13 1024.8 1024.0 0.4
14 11.07 С 2 20 км в посл. час морось 9/9 240 м
[Frnb]
+15.5 +12.8 84 +15 +17 1024.6 1023.7
13 11.07 С 3 15 км слабая морось 10/10 150 м
[Frnb]
+14.3 +12.5 89 +13 +13 1024.7 1023.9
15 11.07 С 2 50 км {морось} 9/9 480 м
[Sc]
+15.0 +12.2 83 +15 +16 1024.5 1023.6
16 11.07 С 2 40 км 10/10 300 м
[St]
+14.8 +11.9 83 +14 +14 1024.5 1023.7
17 11.07 СВ 2 50 км 10/10 300 м
[Sc]
+15.0 +12.2 83 +15 +15 1024.3 1023.5
18 11.07 СВ 2 10 км слабая морось 10/10 300 м
[St]
+14.0 +12.8 92 +14 +14 1024.5 1023.7 +15.7 0.4
20 11.07 С 3 3500 м слабая морось 10/10 120 м
[St]
+13.6 +12.0 90 +12 +12 1024.6 1023.7
19 11.07 С 1 2000 м слабая морось 10/10 120 м
[St]
+14.0 +12.8 92 +14 +14 1024.5 1023.7
21 11.07 С 3 45 км в посл. час морось 10/10 120 м
[Sc]
+13.8 +12.1 89 +13 +13 1024.6 1023.8
22 11.07 С 3 6000 м слабая морось 10/10 120 м
[St]
+13.5 +12.1 91 +12 +12 1024.7 1023.8
23 11.07 С 4 20 км дождь {морось} 10/10 120 м
[Sc]
+13.2 +11.9 92 +12 +12 1024.7 1023.9
00 12.07 С 3 40 км в посл. час дождь {морось} 10/10 120 м
[Sc]
+13.2 +11.7 91 +12 +12 1024.6 1023.7 0.6
02 12.07 С 5 35 км в посл. час морось 10/10 180 м
[St]
+13.1 +11.8 92 +11 +11 1024.4 1023.5
01 12.07 С 4 45 км слабая морось 10/10 120 м
[Sc]
+13.2 +12.1 93 +12 +12 1024.5 1023.6
03 12.07 С 5 30 км в посл. час морось 10/10 180 м
[Sc]
+13.0 +10.9 87 +11 +11 1024.2 1023.4
04 12.07 С 5 35 км 10/10 180 м
[Sc]
+13.0 +11.2 89 +11 +11 1024.1 1023.3
05 12.07 С 4 7000 м осадки на расстоянии 10/10 120 м
[Sc]
+13.2 +11.1 87 +11 +11 1024.1 1023.3
06 12.07 С 4 7000 м слабая морось 10/10 120 м
[Sc]
+13.4 +10.9 85 +12 +12 1024.2 1023.4 +12.8 0.6
08 12.07 СВ 3 40 км в посл. час морось 10/10 180 м
[St]
+13.7 +10.9 83 +13 +13 1024.5 1023.7
07 12.07 СЗ 2 6000 м слабая морось 10/10 150 м
[Sc]
+13.1 +11.7 91 +12 +12 1024.4 1023.6
09 12.07 С 4 40 км {морось} 10/10 150 м
[Sc]
+14.0 +10.5 79 +13 +13 1024.5 1023.7
10 12.07 СВ 4 50 км 10/10 300 м
[Sc]
+14.9 +11.5 80 +14 +14 1024.6 1023.7
11 12.07 СВ 3 50 км 9/9 300 м
[Sc]
+15.0 +10.9 76 +14 +15 1024.6 1023.8
12 12.07 СВ 3 45 км {морось} 9/9 450 м
[Cu Sc]
+15.6 +10.8 73 +15 +16 1024.6 1023.8 0.0
14 12.07 СВ 3 40 км 9/9 450 м
[Cu Sc]
+16.1 +11.2 73 +16 +17 1024.4 1023.5
13 12.07 СВ 3 50 км 9/9 480 м
[Cu Sc]
+15.6 +10.7 73 +15 +16 1024.5 1023.6
15 12.07 В 4 40 км 9/9 720 м
[Cu Sc]
+15.8 +10.7 72 +15 +16 1024.2 1023.4
16 12.07 В 4 50 км 9/9 450 м
[Cu Sc]
+15.7 +11.0 74 +15 +15 1024.0 1023.1
17 12.07 В 4 50 км 9/9 480 м
[Cu Sc]
+15.4 +10.6 73 +15 +15 1023.8 1022.9
18 12.07 В 4 60 км 9/9 450 м
[Cu Sc]
+15.3 +10.1 71 +14 +15 1023.7 1022.9 +16.7 0.0
20 12.07 В 3 40 км 9/9 600 м
[Cu Sc Ci fib]
+14.9 +10.0 72 +14 +14 1023.8 1022.9
19 12.07 В 4 35 км 9/8 450 м
[Cu Sc Ci fib]
+15.1 +9.7 70 +14 +14 1023.6 1022.7
21 12.07 В 4 40 км 8/6 600 м
[Cu Sc Ci fib]
+14.5 +9.6 72 +13 +13 1023.9 1023.0
22 12.07 В 3 40 км 9/9 1170 м
[Sc]
+14.5 +9.9 74 +14 +14 1024.0 1023.1
23 12.07 ЮВ 2 45 км 9/9 1170 м
[Sc]
+14.0 +10.2 78 +13 +13 1023.7 1022.8
00 13.07 Ю 3 45 км 9/8 1410 м
[Sc Ci fib]
+12.8 +10.1 84 +11 +11 1023.5 1022.6
02 13.07 В 2 30 км н/о +14.2 +10.4 78 +14 +14 1023.0 1022.1
01 13.07 В 1 45 км 9/9 1440 м
[Sc]
+13.2 +10.1 81 +13 +13 1023.3 1022.5
03 13.07 Ю 2 40 км 9/9 1260 м
[Sc]
+13.3 +10.5 83 +13 +13 1022.7 1021.8
04 13.07 В 2 45 км 9/9 1260 м
[Sc]
+13.0 +10.2 83 +12 +12 1022.4 1021.5
05 13.07 В 2 45 км 9/9 1230 м
[Sc]
+13.1 +10.4 84 +13 +13 1022.2 1021.4
06 13.07 ЮВ 2 45 км 9/9 1200 м
[Sc]
+13.9 +11.1 83 +13 +14 1022.0 1021.2 +12.5
08 13.07 ЮЗ 1 40 км 9/9 300 м
[Cu Sc]
+16.7 +11.9 73 +18 +18 1021.9 1021.1
07 13.07 Ю 2 40 км 9/9 360 м
[Sc]
+15.0 +11.4 79 +15 +15 1021.9 1021.1
09 13.07 СЗ 3 40 км 9/9 660 м
[Cu Sc]
+16.5 +11.7 73 +16 +17 1021.6 1020.7
10 13.07 С 3 40 км 9/9 660 м
[Cu Sc]
+17.1 +12.2 73 +17 +18 1021.5 1020.6
11 13.07 СЗ 4 40 км осадки на расстоянии 9/9 660 м
[Cu Sc]
+17.1 +12.5 74 +17 +18 1021.6 1020.7
12 13.07 СЗ 3 35 км осадки на расстоянии 9/9 800 м
[Cu Sc]
+16.9 +12.6 76 +17 +18 1021.2 1020.3
14 13.07 СВ 2 50 км 9/9 1200 м
[Cu Sc]
+18.5 +12.2 67 +20 +21 1020.4 1019.6
13 13.07 С 4 40 км 6/6 700 м
[Cu Sc]
+18.3 +12.5 69 +19 +23 1020.7 1019.9
15 13.07 СВ 3 50 км 4/4 900 м
[Cu Sc]
+19.4 +12.0 62 +21 +27 комфорт 1020.1 1019.3
16 13.07 В 3 50 км 6/6 1200 м
[Cu Sc]
+19.3 +12.5 65 +21 +24 комфорт 1019.5 1018.7
17 13.07 В 3 50 км 6/6 1350 м
[Cu Sc]
+19.7 +11.5 59 +21 +23 комфорт 1019.2 1018.3
18 13.07 В 3 50 км 6/6 1350 м
[Cu Sc]
+19.5 +11.6 60 +21 +22 комфорт 1018.9 1018.0 +20.2
20 13.07 В 2 50 км 1/1 1500 м
[Sc Ci fib]
+18.4 +11.4 64 +20 +20 1018.5 1017.7
19 13.07 В 3 70 км 4/4 900 м
[Cu Sc]
+18.7 +11.4 63 +20 +20 1018.6 1017.8
21 13.07 Ю 1 60 км 9/8 1350 м
[Sc Ac trans]
+16.7 +11.9 73 +18 +18 1018.7 1017.9
22 13.07 Ю 2 70 км 9/6 1500 м
[Sc Ci sp]
+14.5 +11.8 84 +14 +14 1018.6 1017.8
23 13.07 ЮЗ 4 40 км 9/1 1500 м
[Sc Ci fib]
+13.9 +11.8 87 +13 +13 1018.6 1017.8
00 14.07 З 3 50 км 9/1 1470 м
[Sc Ac trans Ci fib]
+12.6 +10.4 86 +11 +11 1018.4 1017.6
02 14.07 ЮВ 1 35 км н/о +11.3 +9.6 89 +12 +12 1017.6 1016.8
01 14.07 З 2 60 км 1/1 1500 м
[Sc]
+11.7 +9.7 88 +10 +10 1018.2 1017.3
03 14.07 ЮЗ 1 30 км 5/1 1500 м
[Sc Ci fib]
+11.2 +9.5 89 +12 +12 1017.4 1016.5
04 14.07 ЮЗ 3 70 км 9/0
[Ac trans Ci fib]
+11.7 +9.2 85 +10 +10 1016.8 1016.0
05 14.07 ЮЗ 3 40 км 9/0
[Ac trans Ci fib]
+13.5 +10.1 80 +13 +13 1016.4 1015.6
06 14.07 ЮЗ 3 70 км 9/0
[Ac trans Ci fib]
+15.0 +10.6 75 +14 +15 1016.1 1015.2 +11.0
08 14.07 ЮЗ 7 50 км 9/0
[Ac As Ci fib]
+19.1 +9.8 55 +19 +21 1015.4 1014.6
07 14.07 ЮЗ 6 50 км 8/0
[Ac As]
+17.7 +9.9 60 +17 +18 1015.5 1014.7
09 14.07 ЮЗ 7 50 км 9/1 900 м
[Cu hum Ac trans Ci fib]
+20.0 +10.1 53 +21 +22 комфорт 1015.1 1014.3
10 14.07 ЮЗ 5 50 км 9/1 1200 м
[Cu hum Ac trans Ci fib]
+21.2 +10.2 49 +23 +26 комфорт 1014.7 1013.9
11 14.07 З 6 50 км 9/1 1320 м
[Cu hum Ac trans Cs]
+21.8 +10.7 49 +24 +27 комфорт 1014.5 1013.7
12 14.07 ЮЗ 5 55 км 9/1 1500 м
[Cu hum Ac As Cs]
+22.5 +10.1 45 +24 +28 комфорт 1013.9 1013.1
14 14.07 З 6 50 км 10/1 1500 м
[Cu hum Ac trans Cs]
+22.4 +11.1 49 +25 +27 комфорт 1013.3 1012.5
13 14.07 З 5 55 км 9/1 1500 м
[Cu hum Ac trans Cs]
+23.1 +11.0 46 +25 +29 комфорт 1013.6 1012.8
15 14.07 З 4 50 км 10/1 1500 м
[Sc Ac trans Cs]
+22.3 +11.5 50 +24 +28 комфорт 1013.0 1012.2
16 14.07 ЮЗ 5 50 км 9/1 1500 м
[Cu hum Ac trans Cs]
+23.3 +12.0 49 +26 +28 жарко 1012.8 1012.0
17 14.07 З 5 50 км 9/3 1440 м
[Sc Ac trans Cs]
+21.4 +11.9 55 +24 +25 комфорт 1012.7 1011.8
18 14.07 З 4 50 км 9/3 1410 м
[Sc Ac lent Cs]
+21.6 +12.3 55 +24 +25 комфорт 1012.5 1011.7 +23.9
20 14.07 ЮЗ 4 40 км 9/3 1230 м
[Sc Ac lent Ci fib]
+20.6 +13.2 63 +23 +23 комфорт 1012.4 1011.6
19 14.07 З 5 60 км 10/4 1320 м
[Sc diur, vesp Ac lent]
+20.6 +12.8 61 +23 +23 комфорт 1012.5 1011.7
21 14.07 ЮЗ 3 50 км 8/5 1110 м
[Sc Ac trans Ci fib]
+19.8 +13.2 66 +22 +22 комфорт 1012.7 1011.8
22 14.07 ЮЗ 2 40 км 6/0
[Ac trans Ci fib]
+18.5 +13.0 70 +20 +20 1012.7 1011.8
23 14.07 Ю 3 40 км 8/3 1050 м
[Sc Ac lent Ci fib]
+17.7 +12.9 73 +18 +18 1012.4 1011.6
00 15.07 Ю 3 40 км 9/1 1380 м
[Sc Ac trans Ci fib]
+17.5 +13.2 76 +18 +18 1012.1 1011.3
02 15.07 Ю 2 30 км 9/0
[Ac lent Ci fib]
+17.6 +13.6 77 +18 +18 1011.7 1010.8
01 15.07 ЮЗ 3 30 км 9/0
[Ac As]
+18.0 +13.4 74 +18 +18 1011.9 1011.1
03 15.07 Ю 3 35 км 9/1 900 м
[Sc Ac lent]
+17.9 +13.8 77 +18 +18 1011.4 1010.6
04 15.07 Ю 4 40 км слабый ливневой дождь 9/1 600 м
[Sc Ac cast]
+17.9 +14.1 78 +18 +18 1011.0 1010.1
05 15.07 Ю 4 35 км в посл. час ливневой дождь 9/1 900 м
[Sc As trans]
+18.3 +14.3 77 +19 +19 1011.1 1010.2
06 15.07 ЮЗ 3 50 км {ливн. осадки} 9/1 600 м
[Sc Ac cast]
+19.2 +14.4 74 +21 +21 комфорт 1011.1 1010.3 +17.1 0.0
08 15.07 Ю 5 45 км в посл. час ливневой дождь 9/9 840 м
[Cu Sc]
+20.6 +14.6 68 +23 +24 комфорт 1011.0 1010.2
07 15.07 ЮЗ 2 40 км в посл. час ливневой дождь 9/6 900 м
[Cu Sc Ac trans]
+19.7 +14.8 73 +22 +23 комфорт 1011.2 1010.4
09 15.07 ЮЗ 4 45 км осадки на расстоянии {ливн. осадки} 10/8 900 м
[Cu Sc Ac trans]
+20.9 +14.8 68 +24 +25 комфорт 1011.2 1010.4
10 15.07 ЮЗ 4 45 км 9/9 1050 м
[Cu Sc]
+22.4 +14.5 61 +26 +27 жарко 1010.9 1010.1
11 15.07 ЮЗ 4 40 км 10/8 1050 м
[Cu Sc As trans]
+22.7 +14.8 61 +26 +27 жарко 1010.9 1010.1
12 15.07 ЮЗ 6 50 км {ливн. осадки} 10/10 1140 м
[Sc]
+22.2 +14.2 60 +25 +25 комфорт 1010.8 1010.0 0.0
14 15.07 С 2 25 км слабый дождь 10/9 500 м
[Sc As trans]
+18.7 +16.7 88 +20 +21 1011.0 1010.1
13 15.07 СЗ 2 30 км слабый дождь 10/10 800 м
[Sc]
+19.4 +16.4 83 +22 +22 комфорт 1011.2 1010.3
15 15.07 В 3 40 км слабый дождь 10/9 1170 м
[Sc As trans]
+19.0 +16.5 85 +21 +21 комфорт 1010.8 1010.0
16 15.07 В 2 30 км в посл. час дождь 10/9 420 м
[Sc As trans]
+19.4 +16.4 83 +22 +22 комфорт 1010.5 1009.7
17 15.07 СВ 1 15 км дождь 10/10 480 м
[Sc]
+19.2 +16.6 85 +22 +22 комфорт 1010.4 1009.6
18 15.07 В 3 40 км в посл. час дождь 10/5 1050 м
[Sc As trans]
+19.3 +17.5 89 +22 +22 комфорт 1010.2 1009.3 +23.1 0.6
20 15.07 СЗ 1 35 км 9/6 960 м
[Sc Ac trans]
+19.4 +17.5 89 +23 +23 комфорт 1009.9 1009.1
19 15.07 В 1 30 км 9/3 1200 м
[Sc Ac trans]
+19.7 +17.5 87 +24 +24 комфорт 1009.9 1009.1
21 15.07 ЮЗ 2 40 км 10/8 1110 м
[Sc Ac trans]
+19.1 +16.7 86 +21 +21 комфорт 1010.0 1009.2
22 15.07 Ю 3 45 км 10/5 1500 м
[Sc Ac trans]
+18.6 +15.1 80 +20 +20 1009.8 1008.9
23 15.07 ЮВ 3 40 км 9/5 1500 м
[Sc Ac trans]
+18.7 +15.2 80 +20 +20 1009.5 1008.6
00 16.07 Ю 3 45 км 10/10 1500 м
[Sc]
+18.3 +15.1 82 +19 +19 1009.4 1008.5
01 16.07 Ю 3 40 км 10/0
[As op]
+17.7 +15.0 84 +18 +18 1009.2 1008.4

 

Местоположение метеостанции Lossiemouth (Великобритания): широта 57.72 долгота -3.32 высота над уровнем моря 6 м.

В архиве по умолчанию представлена погода в Lossiemouth за последнюю неделю. Архивные данные за месяц целиком и за предыдущие месяцы, начиная с января 2011 года, Вы можете получить, выбрав интересующий диапазон дат из раскрывающегося списка и нажав кнопку "Ввод!".


*Определитесь, кто Вы:
робот инопланетянин человек

Внимание! Время в таблицах - всемирное. Для получения местного времени необходимо прибавить поправку, которая в Lossiemouth равна 0 ч.

Смотрите также архив погоды в соседних городах и на ближайших метеорологических станциях:

Погода в Kinloss (Великобритания) (17 км)
Погода в Tain Range (Великобритания) (40 км)
Погода в Aviemore (Великобритания) (65 км)
Погода в Cairngorm (Великобритания) (69 км)
Погода в Aboyne (Великобритания) (77 км)
Погода в Wick (Великобритания) (82 км)
Погода в Aberdeen (Великобритания) (88 км)
Погода в Altnaharra (Великобритания) (90 км)
Погода в Loch Glascarnoch (Великобритания) (93 км)
Погода в Cairnwell (Великобритания) (94 км)

Пояснения к столбцам:

Ветер - указаны скорость ветра в м/с - средняя за 10 мин, порывы в срок и между сроками (в фигурных скобках) и направление, откуда дует ветер: С - северный, СВ - северо-восточный, В - восточный, ЮВ - юго-восточный, Ю - южный, ЮЗ - юго-западный, З - западный, СЗ - северо-западный.
Видимость - горизонтальная дальность видимости в метрах или километрах. При видимости от 1 до 10 км при отсутствии осадков обычно наблюдается дымка, при ухудшении видимости до 1 км и менее - туман. В сухую погоду видимость может ухудшаться дымом, пылью или мглою.
Явления - указаны атмосферные явления, наблюдавшиеся в срок или в последний час перед сроком; фигурными скобками обозначены явления, наблюдавшиеся между сроками (за 1-3 часа до срока); квадратными скобками обозначены град или гололедные отложения с указанием их диаметра в мм.
Облачность - указаны через наклонную черту общая и нижняя облачность в баллах и высота нижней границы облаков в метрах; квадратными скобками обозначены формы облаков: Ci - перистые, Cs - перисто-слоистые, Cc - перисто-кучевые, Ac - высококучевые, As - высокослоистые, Sc - слоисто-кучевые, Ns - слоисто-дождевые, Cu - кучевые, Cb - кучево-дождевые. Подробнее классификацию облаков см. в Атласе облаков (PDF).
T - Температура воздуха - температура, измеренная на высоте 2 м над землей.
Td - Температура точки росы - температура, при понижении до которой содержащийся в воздухе водяной пар достигнет насыщения.
f - Относительная влажность воздуха - влажноcть воздуха, измеренная на высоте 2 м над землей.
Te - Эффективная температура - температура, которую ощущает одетый по сезону человек в тени. Характеристика душности погоды. При расчете учитывается влияние влажности воздуха и скорости ветра на теплоощущения человека.
Tes - Эффективная температура на солнце - температура, которую ощущает человек, с поправкой на солнечный нагрев. Характеристика знойности погоды. Зависит от высоты солнца над горизонтом, облачности и скорости ветра. Ночью, в пасмурную погоду, а также при ветре 12 м/с и более поправка равна нулю.
P - Атмосферное давление - приведенное к уровню моря атмосферное давление.
Po - Атмосферное давление - измеренное на уровне метеостанции атмосферное давление.
Tmin - Минимальная температура - минимум температуры воздуха на высоте 2 м над землей.
Tmax - Максимальная температура - максимум температуры воздуха на высоте 2 м над землей.
R - Количество осадков - Количество выпавших осадков за период времени, мм. При наведении курсора мыши на число - период времени, за который выпало указанное количество осадков.
R24 - Количество осадков - Количество выпавших осадков за 24 часа, мм.
S - Снежный покров - Высота снежного покрова, см. При наведении курсора мыши на число - состояние снежного покрова и степень покрытия местности в баллах.